TimeAKST,TemperatureF,Dew PointF,Humidity,Sea Level PressureIn,VisibilityMPH,Wind Direction,Wind SpeedMPH,Gust SpeedMPH,PrecipitationIn,Events,Conditions,WindDirDegrees,DateUTC
12:53 AM,-0.0,-2.9,88,30.28,5.0,West,10.4,-,0.00,,Overcast,270,2012-12-05 09:53:00
1:53 AM,-0.0,-2.9,88,30.28,4.0,West,6.9,-,0.00,,Overcast,280,2012-12-05 10:53:00
2:53 AM,1.0,-2.9,83,30.29,4.0,NNE,9.2,-,0.00,,Overcast,20,2012-12-05 11:53:00
5:31 AM,-0.4,-5.8,78,30.30,4.0,NNE,15.0,-,0.00,,Overcast,20,2012-12-05 14:31:00
5:39 AM,-2.2,-5.8,85,30.31,1.8,North,15.0,-,0.00,,Overcast,10,2012-12-05 14:39:00
5:50 AM,-2.2,-5.8,85,30.31,2.5,NNE,15.0,-,0.00,,Overcast,20,2012-12-05 14:50:00
5:53 AM,-2.9,-6.0,87,30.31,3.0,North,13.8,-,0.00,,Overcast,10,2012-12-05 14:53:00
7:45 AM,-2.2,-7.6,78,30.32,7.0,NNE,9.2,-,N/A,,Overcast,20,2012-12-05 16:45:00
7:53 AM,-2.9,-7.1,82,30.33,8.0,NNE,8.1,-,N/A,,Overcast,20,2012-12-05 16:53:00
8:53 AM,-2.9,-7.1,82,30.35,7.0,North,4.6,-,N/A,,Overcast,10,2012-12-05 17:53:00
9:45 AM,-2.2,-7.6,78,30.35,2.5,Calm,Calm,-,0.00,Snow,Light Snow,0,2012-12-05 18:45:00
9:53 AM,-2.9,-7.1,82,30.35,2.5,WNW,3.5,-,0.00,,Overcast,290,2012-12-05 18:53:00
10:02 AM,-2.2,-7.6,78,30.34,3.0,West,3.5,-,N/A,,Overcast,280,2012-12-05 19:02:00
10:53 AM,-2.9,-7.1,82,30.34,4.0,WNW,5.8,-,0.00,,Overcast,290,2012-12-05 19:53:00
11:53 AM,-4.0,-6.0,91,30.36,6.0,East,6.9,-,N/A,,Overcast,100,2012-12-05 20:53:00
12:53 PM,-4.0,-7.1,87,30.39,7.0,East,4.6,-,N/A,,Overcast,100,2012-12-05 21:53:00
1:24 PM,-4.0,-7.6,85,30.40,6.0,NE,5.8,-,N/A,,Overcast,50,2012-12-05 22:24:00
1:53 PM,-2.9,-7.1,82,30.41,4.0,NE,8.1,-,N/A,,Overcast,40,2012-12-05 22:53:00
2:35 PM,-2.2,-5.8,85,30.41,2.0,NNE,5.8,-,0.00,Snow,Light Snow,30,2012-12-05 23:35:00
2:53 PM,-2.9,-6.0,87,30.42,2.5,NNE,3.5,-,0.00,Snow,Light Snow,20,2012-12-05 23:53:00
3:17 PM,-2.2,-5.8,85,30.41,3.0,NNE,4.6,-,0.00,Snow,Light Snow,20,2012-12-06 00:17:00
3:53 PM,-0.9,-5.1,83,30.42,5.0,NE,9.2,-,0.00,,Overcast,40,2012-12-06 00:53:00
4:53 PM,-0.9,-4.0,87,30.43,7.0,NNE,8.1,-,N/A,,Overcast,30,2012-12-06 01:53:00
5:53 PM,-0.9,-4.0,87,30.45,8.0,NE,6.9,-,0.00,,Overcast,40,2012-12-06 02:53:00
6:53 PM,-0.0,-2.9,88,30.46,7.0,NNE,6.9,-,0.00,,Overcast,20,2012-12-06 03:53:00
7:53 PM,-0.9,-4.0,87,30.47,7.0,North,6.9,-,0.00,,Overcast,10,2012-12-06 04:53:00
8:53 PM,-0.0,-4.0,83,30.48,8.0,NE,10.4,-,0.00,,Overcast,40,2012-12-06 05:53:00
9:32 PM,-2.2,-5.8,85,30.49,8.0,NNE,8.1,-,0.00,,Overcast,20,2012-12-06 06:32:00
9:53 PM,-4.0,-7.1,87,30.50,8.0,NNE,8.1,-,0.00,,Overcast,20,2012-12-06 06:53:00
10:51 PM,-9.4,-13.0,84,30.50,8.0,NNE,6.9,-,N/A,,Scattered Clouds,20,2012-12-06 07:51:00
10:53 PM,-9.9,-13.0,86,30.50,8.0,North,6.9,-,N/A,,Scattered Clouds,10,2012-12-06 07:53:00
11:53 PM,-9.9,-13.0,86,30.52,8.0,North,6.9,-,N/A,,Clear,10,2012-12-06 08:53:00